Regional Weather Roundup
Issued by NWS

Home | Current Version | Previous Version | Graphics & Text | Print | Product List | Glossary On
Versions: 1 2 3 4 5 6 7 8 9 10 11 12 13 14 15 16 17 18 19 20 21 22 23 24 25 26 27 28 29 30 31 32 33 34 35 36 37 38 39 40 41 42 43 44 45 46 47 48 49 50
679
ASUS43 KFSD 240210
RWRSD

WEATHER ROUNDUP FOR SOUTH DAKOTA
NATIONAL WEATHER SERVICE SIOUX FALLS SD
900 PM CDT WED MAY 23 2018

NOTE: "FAIR" INDICATES FEW OR NO CLOUDS BELOW 12,000 FEET WITH NO
SIGNIFICANT WEATHER AND/OR OBSTRUCTIONS TO VISIBILITY.


SDZ001>005-009-010-012>017-240300-
NORTHWEST AND NORTH CENTRAL SOUTH DAKOTA

CITY           SKY/WX    TMP DP  RH WIND       PRES   REMARKS
BUFFALO          N/A     66  55  67 S32G44    29.83
FAITH            N/A     68  66  93 S9        29.86S
MOBRIDGE       PTCLDY    76  66  71 SE5       29.81F
$$

SDZ012>016-024>037-041>051-057-063-072>074-240300-
SOUTHWEST AND SOUTH CENTRAL SOUTH DAKOTA

CITY           SKY/WX    TMP DP  RH WIND       PRES   REMARKS
RAPID CTY ARPT CLOUDY    67  47  48 W10       29.87F
PIERRE         PTCLDY    75  65  70 SE8       29.81F
CUSTER         CLOUDY    58  44  60 SW9G17    30.07R
ELLSWORTH AFB  CLOUDY    68  47  46 SW12      29.87S
PHILIP         PTCLDY    72  67  84 NE7       29.82F
PINE RIDGE     CLOUDY    62  57  83 VRB3      29.90R
SPEARFISH      MOCLDY    66  54  63 W17G26    29.95R
WINNER         FAIR      78  61  55 S15       29.86F
$$

SDZ004>011-016>023-039-040-240300-
NORTHEAST SOUTH DAKOTA

CITY           SKY/WX    TMP DP  RH WIND       PRES   REMARKS
ABERDEEN       PTCLDY    78  63  59 S15       29.87R
WATERTOWN      CLEAR     75  69  81 SE8       29.94S
BROOKINGS      MOCLDY    77  63  61 SE8       29.95S
SISSETON         N/A     71  65  81 SE14      29.94R
$$

SDZ017-020-022-023-036>040-048>070-240300-
SOUTHEAST SOUTH DAKOTA

CITY           SKY/WX    TMP DP  RH WIND       PRES   REMARKS
SIOUX FALLS    CLOUDY    81  62  52 SE12      29.94S
HURON          PTCLDY    77  62  59 SE9       29.87S
CHAMBERLAIN    PTCLDY    76  64  67 S12       29.87S
MITCHELL       CLOUDY    80  62  54 S12       29.89S
YANKTON        CLOUDY    77  60  55 S14G22    29.94R
$$

ABBREVIATIONS USED IN REMARKS
   TC - TEMPERATURE IN CELSIUS
  WCI - WIND CHILL INDEX
   HX - HEAT INDEX
  VSB - VISIBILITY





USA.gov is the U.S. government's official web portal to all federal, state and local government web resources and services.